This is the latest recevied weather packets stored in our database for station/object IT9HBS-11. If no packets are shown the sender has not sent any weather packets the latest 10 day(s).
| Time | Temp. | Humidity | Pressure | Rain* | Wind** | Luminosity | Snow |
|---|---|---|---|---|---|---|---|
| 1787835908 | 32.22° C | 52% | 1009.2 hPa | - | - | - | - |
| 1787834804 | 32.22° C | 50% | 1009.2 hPa | - | - | - | - |
| 1787834712 | 32.22° C | 50% | 1009.2 hPa | - | - | - | - |
| 1787833512 | 32.22° C | 49% | 1009.3 hPa | - | - | - | - |
| 1787832312 | 32.22° C | 48% | 1009.2 hPa | - | - | - | - |
| 1787831108 | 31.67° C | 47% | 1009.4 hPa | - | - | - | - |
| 1787829907 | 32.78° C | 54% | 1009.5 hPa | - | - | - | - |
| 1787828711 | 32.78° C | 54% | 1009.6 hPa | - | - | - | - |
| 1787827488 | 32.78° C | 54% | 1009.8 hPa | - | - | - | - |
| 1787826291 | 32.22° C | 54% | 1009.9 hPa | - | - | - | - |
| 1787825087 | 32.22° C | 53% | 1009.6 hPa | - | - | - | - |
| 1787823891 | 32.22° C | 53% | 1009.9 hPa | - | - | - | - |
| 1787821487 | 32.78° C | 53% | 1009.7 hPa | - | - | - | - |
| 1787820287 | 32.78° C | 53% | 1010 hPa | - | - | - | - |
| 1787819087 | 32.78° C | 52% | 1010.3 hPa | - | - | - | - |
| 1787817887 | 32.22° C | 53% | 1009.9 hPa | - | - | - | - |
| 1787816687 | 32.22° C | 54% | 1009.8 hPa | - | - | - | - |
| 1787815487 | 32.78° C | 53% | 1009.9 hPa | - | - | - | - |
| 1787814290 | 32.78° C | 53% | 1009.8 hPa | - | - | - | - |
| 1787813086 | 32.22° C | 55% | 1009.8 hPa | - | - | - | - |
| 1787811887 | 31.67° C | 56% | 1009.7 hPa | - | - | - | - |
| 1787810686 | 31.67° C | 55% | 1009.4 hPa | - | - | - | - |
| 1787809490 | 32.22° C | 53% | 1008.9 hPa | - | - | - | - |
| 1787808286 | 32.22° C | 53% | 1008.8 hPa | - | - | - | - |
| 1787807086 | 32.22° C | 52% | 1008.2 hPa | - | - | - | - |
* Rain since midnight (hover to see other rain measurements)
** Current wind speed in m/s (hover to see current wind gust speed)